Weather History for KEYW - September, 2013

Change the Weather History Date:

Sunday, September 8, 2013

  Actual Average Record
Temperature  
Mean Temperature 83 °F 84 °F  
Max Temperature 88 °F 88 °F 93 °F (1951)
Min Temperature 78 °F 79 °F 69 °F (1897)
Degree Days  
Heating Degree Days 0 0  
Month to date heating degree days 0 0  
Since 1 July heating degree days 0 0  
Cooling Degree Days 18 19  
Month to date cooling degree days 150 152  
Year to date cooling degree days 3470 3341  
Growing Degree Days 34 (Base 50)    
Moisture  
Dew Point 74 °F    
Average Humidity 77    
Maximum Humidity 91    
Minimum Humidity 63    
Precipitation  
Precipitation 0.00 in 0.22 in 3.90 in (1965)
Month to date precipitation 1.64 1.74  
Year to date precipitation 37.15 25.41  
Snow  
Snow 0.00 in - - ()
Month to date snowfall 0.0  
Since 1 July snowfall 0.0  
Since 1 September snowfall 0.0  
Snow Depth 0.00 in    
Sea Level Pressure  
Sea Level Pressure 29.91 in    
Wind  
Wind Speed 5 mph (NE)    
Max Wind Speed 17 mph    
Max Gust Speed 22 mph    
Visibility 10 miles    
Events      
T = Trace of Precipitation, MM = Missing Value Source: NWS Daily Summary

Daily Weather History Graph

Daily Weather History Graph

Search for Another Location

Airport or City:

Trip Planner

Search our weather history database for the weather conditions in past years. The results will help you decide how hot, cold, wet, or windy it might be!

Date:

Astronomy

Sep. 08, 2013 Rise Set
Actual Time 7:10 AM EDT 7:37 PM EDT
Civil Twilight 6:47 AM EDT 8:00 PM EDT
Nautical Twilight 6:21 AM EDT 8:27 PM EDT
Astronomical Twilight 5:53 AM EDT 8:54 PM EDT
Moon 10:00 AM EDT (9/8) 9:41 PM EDT (9/8)
Length of Visible Light 13h 12m
Length of Day
12h 27m
Waxing Crescent, 11% of the Moon is Illuminated
Sep 8
Waxing Crescent
Sep 12
First Quarter
Sep 19
Full
Sep 26
Last Quarter
Oct 4
New

Hourly Weather History & Observations

Time (EDT) Temp. Heat Index Dew Point Humidity Pressure Visibility Wind Dir Wind Speed Gust Speed Precip Events Conditions
12:53 AM 80.1 °F 84.2 °F 73.0 °F 79% 29.93 in 10.0 mi ENE 5.8 mph - N/A   Clear
1:53 AM 80.1 °F 84.2 °F 73.0 °F 79% 29.92 in 10.0 mi ENE 4.6 mph - N/A   Clear
2:53 AM 80.1 °F 84.5 °F 73.9 °F 81% 29.92 in 10.0 mi NE 4.6 mph - N/A   Clear
3:53 AM 80.1 °F 85.1 °F 75.0 °F 85% 29.91 in 10.0 mi NE 5.8 mph - N/A   Partly Cloudy
4:53 AM 80.1 °F 85.1 °F 75.0 °F 85% 29.90 in 10.0 mi NE 4.6 mph - N/A   Clear
5:53 AM 80.1 °F 85.1 °F 75.0 °F 85% 29.89 in 10.0 mi ENE 4.6 mph - N/A   Clear
6:53 AM 79.0 °F - 75.0 °F 88% 29.91 in 10.0 mi NE 3.5 mph - N/A   Clear
7:53 AM 80.1 °F 85.1 °F 75.0 °F 85% 29.92 in 10.0 mi ENE 5.8 mph - N/A   Scattered Clouds
8:53 AM 82.9 °F 88.8 °F 73.0 °F 72% 29.94 in 10.0 mi ENE 5.8 mph - N/A   Clear
9:53 AM 82.9 °F 90.2 °F 75.0 °F 77% 29.94 in 10.0 mi ENE 4.6 mph - N/A   Partly Cloudy
10:06 AM 84.2 °F 92.3 °F 75.2 °F 74% 29.94 in 10.0 mi ENE 5.8 mph - N/A   Mostly Cloudy
10:15 AM 84.2 °F 92.3 °F 75.2 °F 74% 29.95 in 10.0 mi East 8.1 mph - N/A   Scattered Clouds
10:53 AM 84.0 °F 90.2 °F 73.0 °F 69% 29.95 in 10.0 mi ENE 6.9 mph - N/A   Clear
11:53 AM 84.0 °F 89.6 °F 72.0 °F 67% 29.94 in 10.0 mi East 5.8 mph - N/A   Clear
12:53 PM 84.9 °F 92.1 °F 73.9 °F 69% 29.92 in 10.0 mi East 6.9 mph - N/A   Clear
1:53 PM 86.0 °F 93.8 °F 73.9 °F 67% 29.91 in 10.0 mi Variable 3.5 mph - N/A   Scattered Clouds
2:53 PM 88.0 °F 97.5 °F 75.0 °F 65% 29.89 in 10.0 mi Variable 3.5 mph - N/A   Scattered Clouds
3:33 PM 84.2 °F 90.9 °F 73.4 °F 70% 29.87 in 10.0 mi NNE 9.2 mph - N/A   Mostly Cloudy
3:41 PM 84.2 °F 92.3 °F 75.2 °F 74% 29.87 in 10.0 mi NNE 6.9 mph - N/A   Partly Cloudy
3:53 PM 87.1 °F 96.3 °F 75.0 °F 67% 29.87 in 10.0 mi NNE 8.1 mph - N/A   Partly Cloudy
4:31 PM 84.2 °F 90.9 °F 73.4 °F 70% 29.87 in 10.0 mi NNE 5.8 mph - N/A   Mostly Cloudy
4:53 PM 86.0 °F 95.1 °F 75.0 °F 70% 29.87 in 10.0 mi NNE 8.1 mph - N/A   Mostly Cloudy
5:44 PM 87.8 °F 95.6 °F 73.4 °F 62% 29.86 in 10.0 mi NNE 8.1 mph - N/A   Scattered Clouds
5:53 PM 87.1 °F 95.4 °F 73.9 °F 65% 29.86 in 10.0 mi NNE 6.9 mph - N/A   Partly Cloudy
6:53 PM 86.0 °F 93.8 °F 73.9 °F 67% 29.89 in 10.0 mi NE 6.9 mph - N/A   Clear
7:53 PM 84.0 °F 91.2 °F 73.9 °F 72% 29.91 in 10.0 mi NNE 5.8 mph - N/A   Partly Cloudy
8:53 PM 81.0 °F 84.4 °F 70.0 °F 69% 29.93 in 10.0 mi Calm Calm - N/A   Partly Cloudy
9:53 PM 80.1 °F 83.6 °F 71.1 °F 74% 29.94 in 10.0 mi East 3.5 mph - N/A   Clear
10:53 PM 80.1 °F 84.2 °F 73.0 °F 79% 29.94 in 10.0 mi Calm Calm - N/A   Clear
11:53 PM 81.0 °F 86.7 °F 75.0 °F 82% 29.94 in 10.0 mi NE 3.5 mph - N/A   Clear